Location: Bear Valley
(38.4650°N, 120.0390°W)
Time: 15:43:08
(UTC-08:00)

OTV 5 (USA 277) - Pass Details

Date: 29 October 2019
Orbit: 310 x 324 km, 54.5° (Epoch: 17 October)

Event Time Altitude Azimuth Distance (km) Brightness Sun altitude
Rises 19:22:09 0° 243° (WSW) 2,041 ? -15.9°
Reaches altitude 10° 19:24:12 10° 254° (WSW) 1,217 ? -16.3°
Maximum altitude 19:26:41 33° 321° (NW) 565 ? -16.7°
Enters shadow 19:27:41 24° 4° (N) 710 ? -16.9°
